| time (UTC) | temp C | wind direction | speed KPH | gust KPH | rain 1hr cm | rain 24hr cm | rain mn cm | humidity % | barometer mb |
| 20260505093058 | 10 | 165 | 0.0 | 0.0 | 0.00 | 0.00 | 0.00 | 89 | 1012.7 |
| 20260505092555 | 10 | 165 | 0.0 | 0.0 | 0.00 | 0.00 | 0.00 | 89 | 1012.5 |
| 20260505092054 | 10 | 165 | 0.0 | 0.0 | 0.00 | 0.00 | 0.00 | 89 | 1012.4 |
| 20260505091550 | 10 | 165 | 0.0 | 0.0 | 0.00 | 0.00 | 0.00 | 88 | 1012.6 |
| 20260505091049 | 11 | 165 | 0.0 | 0.0 | 0.00 | 0.00 | 0.00 | 88 | 1012.3 |
| 20260505090546 | 11 | 165 | 0.0 | 0.0 | 0.00 | 0.00 | 0.00 | 88 | 1012.5 |
| 20260505090044 | 11 | 165 | 0.0 | 0.0 | 0.00 | 0.00 | 0.00 | 88 | 1012.4 |
| 20260505085541 | 11 | 165 | 0.0 | 0.0 | 0.00 | 0.00 | 0.00 | 88 | 1012.4 |
| 20260505085040 | 11 | 165 | 0.0 | 0.0 | 0.00 | 0.00 | 0.00 | 87 | 1012.3 |
| 20260505084537 | 11 | 165 | 0.0 | 0.0 | 0.00 | 0.00 | 0.00 | 87 | 1012.3 |
| 20260505084035 | 11 | 165 | 0.0 | 0.0 | 0.00 | 0.00 | 0.00 | 87 | 1012.3 |
| 20260505083532 | 11 | 165 | 0.0 | 0.0 | 0.00 | 0.00 | 0.00 | 86 | 1012.2 |
| 20260505083029 | 11 | 165 | 0.0 | 0.0 | 0.00 | 0.00 | 0.00 | 86 | 1012.4 |
| 20260505082524 | 11 | 165 | 0.0 | 0.0 | 0.00 | 0.00 | 0.00 | 86 | 1012.3 |
| 20260505082021 | 12 | 165 | 0.0 | 0.0 | 0.00 | 0.00 | 0.00 | 86 | 1012.2 |
| 20260505081518 | 12 | 165 | 0.0 | 0.0 | 0.00 | 0.00 | 0.00 | 85 | 1012.2 |
| 20260505081015 | 12 | 165 | 0.0 | 0.0 | 0.00 | 0.00 | 0.00 | 84 | 1012.0 |
| 20260505080511 | 12 | 165 | 0.0 | 0.0 | 0.00 | 0.00 | 0.00 | 84 | 1012.1 |
| 20260505080008 | 12 | 165 | 0.0 | 0.0 | 0.00 | 0.00 | 0.00 | 83 | 1012.1 |
| 20260505075504 | 12 | 165 | 0.0 | 0.0 | 0.00 | 0.00 | 0.00 | 83 | 1011.9 |
| 20260505075001 | 12 | 165 | 0.0 | 0.0 | 0.00 | 0.00 | 0.00 | 83 | 1012.0 |
| 20260505074458 | 12 | 165 | 0.0 | 0.0 | 0.00 | 0.00 | 0.00 | 82 | 1012.0 |
| 20260505073955 | 13 | 165 | 0.0 | 0.0 | 0.00 | 0.00 | 0.00 | 81 | 1011.9 |
| 20260505073453 | 13 | 165 | 0.0 | 0.0 | 0.00 | 0.00 | 0.00 | 81 | 1012.0 |
| 20260505072950 | 13 | 165 | 0.0 | 0.0 | 0.00 | 0.00 | 0.00 | 81 | 1011.8 |
| 20260505072446 | 13 | 165 | 0.0 | 0.0 | 0.00 | 0.00 | 0.00 | 81 | 1011.7 |
| 20260505071942 | 13 | 165 | 0.0 | 0.0 | 0.00 | 0.00 | 0.00 | 80 | 1011.4 |
| 20260505071438 | 13 | 165 | 0.0 | 0.0 | 0.00 | 0.00 | 0.00 | 79 | 1011.5 |
| 20260505070937 | 13 | 165 | 0.0 | 0.0 | 0.00 | 0.00 | 0.00 | 79 | 1011.5 |
| 20260505070433 | 13 | 165 | 0.0 | 0.0 | 0.00 | 0.00 | 0.00 | 78 | 1011.6 |
| 20260505065929 | 13 | 165 | 0.0 | 0.0 | 0.00 | 0.00 | 0.00 | 78 | 1011.5 |
| 20260505065425 | 13 | 165 | 0.0 | 0.0 | 0.00 | 0.00 | 0.00 | 77 | 1011.3 |
| 20260505064922 | 14 | 165 | 0.0 | 0.0 | 0.00 | 0.00 | 0.00 | 77 | 1011.3 |
| 20260505064419 | 14 | 165 | 0.0 | 0.0 | 0.00 | 0.00 | 0.00 | 76 | 1011.3 |
| 20260505063918 | 14 | 164 | 0.0 | 0.0 | 0.00 | 0.00 | 0.00 | 76 | 1011.4 |
| 20260505063413 | 14 | 164 | 0.0 | 0.0 | 0.00 | 0.00 | 0.00 | 76 | 1011.1 |
| 20260505062910 | 13 | 164 | 0.0 | 0.0 | 0.00 | 0.00 | 0.00 | 77 | 1010.9 |
| 20260505062408 | 14 | 165 | 0.0 | 0.0 | 0.00 | 0.00 | 0.00 | 76 | 1011.1 |
| 20260505061904 | 14 | 165 | 0.0 | 0.0 | 0.00 | 0.00 | 0.00 | 76 | 1011.0 |
| 20260505061403 | 14 | 164 | 0.0 | 0.0 | 0.00 | 0.00 | 0.00 | 76 | 1011.1 |
| 20260505060859 | 14 | 164 | 0.0 | 0.0 | 0.00 | 0.00 | 0.00 | 75 | 1011.0 |
| 20260505060356 | 15 | 165 | 0.0 | 0.0 | 0.00 | 0.00 | 0.00 | 75 | 1011.0 |
| 20260505055852 | 15 | 164 | 0.0 | 0.0 | 0.00 | 0.00 | 0.00 | 74 | 1011.3 |
| 20260505055348 | 15 | 165 | 0.0 | 0.0 | 0.00 | 0.00 | 0.00 | 73 | 1011.0 |
| 20260505054846 | 15 | 164 | 0.0 | 0.0 | 0.00 | 0.00 | 0.00 | 73 | 1011.4 |
| 20260505054343 | 15 | 164 | 0.0 | 0.0 | 0.00 | 0.00 | 0.00 | 72 | 1011.3 |
| 20260505053841 | 15 | 164 | 0.0 | 0.0 | 0.00 | 0.00 | 0.00 | 71 | 1011.1 |
| 20260505053338 | 15 | 164 | 0.0 | 0.0 | 0.00 | 0.00 | 0.00 | 71 | 1010.9 |
| 20260505052834 | 15 | 164 | 0.0 | 0.0 | 0.00 | 0.00 | 0.00 | 70 | 1011.0 |
| 20260505052331 | 15 | 164 | 0.0 | 0.0 | 0.00 | 0.00 | 0.00 | 68 | 1010.7 |
| 20260505051828 | 16 | 164 | 0.0 | 0.0 | 0.00 | 0.00 | 0.00 | 68 | 1011.3 |
| 20260505051326 | 16 | 164 | 0.0 | 0.0 | 0.00 | 0.00 | 0.00 | 66 | 1010.7 |
| 20260505050824 | 16 | 164 | 0.0 | 0.0 | 0.00 | 0.00 | 0.00 | 65 | 1010.8 |
| 20260505050322 | 16 | 164 | 0.0 | 0.0 | 0.00 | 0.00 | 0.00 | 65 | 1010.9 |
| 20260505041752 | 18 | 164 | 0.0 | 0.0 | 0.00 | 0.00 | 0.00 | 60 | 1010.1 |
| 20260505041249 | 18 | 164 | 0.0 | 0.0 | 0.00 | 0.00 | 0.00 | 59 | 1010.2 |
| 20260505040747 | 18 | 164 | 0.0 | 0.0 | 0.00 | 0.00 | 0.00 | 57 | 1010.0 |
| 20260505040244 | 18 | 164 | 0.0 | 0.0 | 0.00 | 0.00 | 0.00 | 56 | 1010.1 |
| 20260505035741 | 18 | 164 | 0.0 | 0.0 | 0.00 | 0.00 | 0.00 | 57 | 1009.9 |
| 20260505035236 | 18 | 164 | 0.0 | 0.0 | 0.00 | 0.00 | 0.00 | 57 | 1009.8 |
| 20260505034733 | 18 | 164 | 0.0 | 0.0 | 0.00 | 0.00 | 0.00 | 57 | 1009.9 |
| 20260505034230 | 18 | 164 | 0.0 | 0.0 | 0.00 | 0.00 | 0.00 | 56 | 1009.8 |
| 20260505033727 | 18 | 164 | 0.0 | 0.0 | 0.00 | 0.00 | 0.00 | 56 | 1009.6 |
| 20260505033225 | 18 | 164 | 0.0 | 0.0 | 0.00 | 0.00 | 0.00 | 55 | 1009.6 |
| 20260505032723 | 19 | 164 | 0.0 | 0.0 | 0.00 | 0.00 | 0.00 | 55 | 1009.4 |
| 20260505032218 | 19 | 164 | 0.0 | 0.0 | 0.00 | 0.00 | 0.00 | 52 | 1009.4 |
| 20260505031716 | 20 | 164 | 0.0 | 0.0 | 0.00 | 0.00 | 0.00 | 51 | 1009.3 |
| 20260505031212 | 20 | 164 | 0.0 | 0.0 | 0.00 | 0.00 | 0.00 | 49 | 1009.3 |
| 20260505030709 | 20 | 164 | 0.0 | 0.0 | 0.00 | 0.00 | 0.00 | 50 | 1009.3 |
| 20260505030205 | 21 | 164 | 0.0 | 0.0 | 0.00 | 0.00 | 0.00 | 47 | 1009.3 |
| 20260505025701 | 21 | 164 | 0.0 | 0.0 | 0.00 | 0.00 | 0.00 | 45 | 1009.2 |
| 20260505025159 | 21 | 164 | 0.0 | 0.0 | 0.00 | 0.00 | 0.00 | 45 | 1009.3 |
| 20260505024657 | 22 | 164 | 0.0 | 0.0 | 0.00 | 0.00 | 0.00 | 47 | 1009.3 |
| 20260505024154 | 22 | 164 | 0.0 | 0.0 | 0.00 | 0.00 | 0.00 | 42 | 1009.2 |
| 20260505023651 | 22 | 164 | 0.0 | 0.0 | 0.00 | 0.00 | 0.00 | 41 | 1009.3 |
| 20260505023148 | 22 | 164 | 0.0 | 0.0 | 0.00 | 0.00 | 0.00 | 41 | 1009.1 |
| 20260505022646 | 22 | 164 | 0.0 | 0.0 | 0.00 | 0.00 | 0.00 | 40 | 1009.1 |
| 20260505022143 | 22 | 164 | 0.0 | 0.0 | 0.00 | 0.00 | 0.00 | 41 | 1009.3 |
| 20260505021639 | 22 | 164 | 0.0 | 0.0 | 0.00 | 0.00 | 0.00 | 40 | 1009.3 |
| 20260505021136 | 22 | 164 | 0.0 | 0.0 | 0.00 | 0.00 | 0.00 | 42 | 1009.2 |
| 20260505020632 | 22 | 164 | 0.0 | 0.0 | 0.00 | 0.00 | 0.00 | 43 | 1009.3 |
| 20260505020128 | 22 | 164 | 0.0 | 0.0 | 0.00 | 0.00 | 0.00 | 39 | 1009.3 |
| 20260505015625 | 22 | 164 | 0.0 | 0.0 | 0.00 | 0.00 | 0.00 | 38 | 1009.3 |
| 20260505015122 | 23 | 164 | 0.0 | 0.0 | 0.00 | 0.00 | 0.00 | 38 | 1009.2 |
| 20260505014618 | 23 | 164 | 0.0 | 0.0 | 0.00 | 0.00 | 0.00 | 38 | 1009.2 |
| 20260505014115 | 23 | 164 | 0.0 | 0.0 | 0.00 | 0.00 | 0.00 | 36 | 1009.5 |
| 20260505013608 | 23 | 164 | 0.0 | 0.0 | 0.00 | 0.00 | 0.00 | 35 | 1009.2 |
| 20260505013105 | 23 | 164 | 1.6 | 4.8 | 0.00 | 0.00 | 0.00 | 34 | 1009.4 |
| 20260505012603 | 24 | 164 | 0.0 | 0.0 | 0.00 | 0.00 | 0.00 | 35 | 1009.2 |
| 20260505012059 | 24 | 164 | 0.0 | 0.0 | 0.00 | 0.00 | 0.00 | 34 | 1009.3 |
| 20260505011555 | 24 | 164 | 0.0 | 0.0 | 0.00 | 0.00 | 0.00 | 35 | 1009.5 |
| 20260505011053 | 24 | 164 | 0.0 | 1.6 | 0.00 | 0.00 | 0.00 | 35 | 1009.6 |
| 20260505010548 | 24 | 164 | 0.0 | 0.0 | 0.00 | 0.00 | 0.00 | 34 | 1009.4 |
| 20260505010044 | 24 | 164 | 0.0 | 0.0 | 0.00 | 0.00 | 0.00 | 35 | 1009.4 |
| 20260505005540 | 24 | 164 | 0.0 | 1.6 | 0.00 | 0.00 | 0.00 | 36 | 1009.4 |
| 20260505005038 | 24 | 164 | 0.0 | 0.0 | 0.00 | 0.00 | 0.00 | 36 | 1009.4 |
| 20260505004529 | 24 | 164 | 0.0 | 1.6 | 0.00 | 0.00 | 0.00 | 35 | 1009.4 |
| 20260505004026 | 24 | 164 | 0.0 | 1.6 | 0.00 | 0.00 | 0.00 | 35 | 1009.9 |
| 20260505003523 | 24 | 164 | 0.0 | 0.0 | 0.00 | 0.00 | 0.00 | 38 | 1009.4 |
| 20260505003020 | 24 | 164 | 0.0 | 9.7 | 0.00 | 0.00 | 0.00 | 36 | 1009.4 |
| 20260505002515 | 24 | 164 | 0.0 | 1.6 | 0.00 | 0.00 | 0.00 | 35 | 1009.4 |
| 20260505002015 | 24 | 164 | 0.0 | 3.2 | 0.00 | 0.00 | 0.00 | 35 | 1009.6 |
| 20260505001511 | 24 | 164 | 0.0 | 0.0 | 0.00 | 0.00 | 0.00 | 37 | 1009.5 |
| 20260505001008 | 24 | 164 | 0.0 | 8.0 | 0.00 | 0.00 | 0.00 | 35 | 1009.4 |
| 20260505000506 | 24 | 164 | 0.0 | 0.0 | 0.00 | 0.00 | 0.00 | 38 | 1009.4 |
| 20260505000003 | 24 | 164 | 0.0 | 4.8 | 0.00 | 0.00 | 0.00 | 38 | 1009.6 |
| 20260504235500 | 24 | 164 | 1.6 | 3.2 | 0.00 | 0.00 | 0.00 | 36 | 1009.5 |
| 20260504234956 | 24 | 164 | 0.0 | 3.2 | 0.00 | 0.00 | 0.00 | 35 | 1009.5 |
| 20260504234454 | 24 | 164 | 0.0 | 3.2 | 0.00 | 0.00 | 0.00 | 37 | 1009.6 |
| 20260504233950 | 24 | 164 | 0.0 | 3.2 | 0.00 | 0.00 | 0.00 | 37 | 1009.4 |
| 20260504233445 | 24 | 164 | 1.6 | 4.8 | 0.00 | 0.00 | 0.00 | 36 | 1009.4 |
| 20260504232943 | 24 | 164 | 6.4 | 11.3 | 0.00 | 0.00 | 0.00 | 34 | 1009.6 |
| 20260504232440 | 24 | 164 | 0.0 | 1.6 | 0.00 | 0.00 | 0.00 | 35 | 1009.6 |
| 20260504231937 | 24 | 164 | 0.0 | 0.0 | 0.00 | 0.00 | 0.00 | 36 | 1009.5 |
| 20260504231433 | 24 | 164 | 1.6 | 1.6 | 0.00 | 0.00 | 0.00 | 35 | 1009.5 |
| 20260504230930 | 24 | 164 | 0.0 | 0.0 | 0.00 | 0.00 | 0.00 | 36 | 1009.6 |
| 20260504230426 | 24 | 164 | 3.2 | 9.7 | 0.00 | 0.00 | 0.00 | 35 | 1009.7 |
| 20260504225926 | 24 | 164 | 0.0 | 0.0 | 0.00 | 0.00 | 0.00 | 37 | 1009.6 |
| 20260504225422 | 24 | 164 | 0.0 | 0.0 | 0.00 | 0.00 | 0.00 | 33 | 1009.9 |
| 20260504224919 | 24 | 164 | 0.0 | 0.0 | 0.00 | 0.00 | 0.00 | 34 | 1009.9 |
| 20260504224416 | 24 | 164 | 0.0 | 0.0 | 0.00 | 0.00 | 0.00 | 33 | 1009.8 |
| 20260504223913 | 24 | 164 | 1.6 | 4.8 | 0.00 | 0.00 | 0.00 | 34 | 1009.9 |
| 20260504223408 | 24 | 164 | 0.0 | 0.0 | 0.00 | 0.00 | 0.00 | 35 | 1009.9 |
| 20260504222904 | 25 | 164 | 0.0 | 3.2 | 0.00 | 0.00 | 0.00 | 33 | 1010.0 |
| 20260504222402 | 24 | 164 | 0.0 | 0.0 | 0.00 | 0.00 | 0.00 | 34 | 1010.1 |
| 20260504221900 | 24 | 164 | 1.6 | 3.2 | 0.00 | 0.00 | 0.00 | 32 | 1010.1 |
| 20260504221356 | 24 | 164 | 0.0 | 0.0 | 0.00 | 0.00 | 0.00 | 33 | 1010.2 |
| 20260504220854 | 24 | 164 | 8.0 | 11.3 | 0.00 | 0.00 | 0.00 | 33 | 1010.2 |
| 20260504220350 | 24 | 164 | 0.0 | 9.7 | 0.00 | 0.00 | 0.00 | 35 | 1010.4 |
| 20260504215847 | 24 | 164 | 0.0 | 3.2 | 0.00 | 0.00 | 0.00 | 34 | 1010.3 |
| 20260504215344 | 24 | 164 | 1.6 | 9.7 | 0.00 | 0.00 | 0.00 | 35 | 1010.1 |
| 20260504214840 | 24 | 164 | 1.6 | 9.7 | 0.00 | 0.00 | 0.00 | 35 | 1010.3 |
| 20260504214337 | 24 | 164 | 0.0 | 8.0 | 0.00 | 0.00 | 0.00 | 36 | 1010.2 |
| 20260504213834 | 23 | 164 | 1.6 | 3.2 | 0.00 | 0.00 | 0.00 | 36 | 1010.2 |
| 20260504213329 | 23 | 164 | 0.0 | 0.0 | 0.00 | 0.00 | 0.00 | 34 | 1010.2 |
| 20260504212827 | 23 | 164 | 0.0 | 3.2 | 0.00 | 0.00 | 0.00 | 37 | 1010.0 |
| 20260504212323 | 23 | 164 | 0.0 | 0.0 | 0.00 | 0.00 | 0.00 | 40 | 1010.2 |
| 20260504211821 | 23 | 164 | 0.0 | 0.0 | 0.00 | 0.00 | 0.00 | 37 | 1010.2 |
| 20260504211317 | 23 | 164 | 0.0 | 8.0 | 0.00 | 0.00 | 0.00 | 35 | 1010.3 |
| 20260504210814 | 23 | 164 | 0.0 | 3.2 | 0.00 | 0.00 | 0.00 | 37 | 1010.3 |
| 20260504210311 | 23 | 164 | 0.0 | 3.2 | 0.00 | 0.00 | 0.00 | 38 | 1010.4 |
| 20260504205809 | 23 | 164 | 0.0 | 0.0 | 0.00 | 0.00 | 0.00 | 41 | 1010.4 |
| 20260504205306 | 23 | 164 | 0.0 | 1.6 | 0.00 | 0.00 | 0.00 | 40 | 1010.5 |
| 20260504204804 | 23 | 164 | 0.0 | 1.6 | 0.00 | 0.00 | 0.00 | 40 | 1010.5 |
| 20260504204302 | 23 | 164 | 0.0 | 1.6 | 0.00 | 0.00 | 0.00 | 38 | 1010.5 |
| 20260504203802 | 23 | 164 | 0.0 | 0.0 | 0.00 | 0.00 | 0.00 | 42 | 1010.6 |
| 20260504203258 | 23 | 164 | 0.0 | 0.0 | 0.00 | 0.00 | 0.00 | 44 | 1010.8 |
| 20260504202753 | 22 | 164 | 0.0 | 1.6 | 0.00 | 0.00 | 0.00 | 38 | 1010.6 |
| 20260504202250 | 22 | 164 | 0.0 | 1.6 | 0.00 | 0.00 | 0.00 | 39 | 1010.6 |
| 20260504201747 | 22 | 164 | 0.0 | 1.6 | 0.00 | 0.00 | 0.00 | 39 | 1010.5 |
| 20260504201244 | 22 | 164 | 0.0 | 1.6 | 0.00 | 0.00 | 0.00 | 39 | 1010.5 |
| 20260504200742 | 22 | 164 | 0.0 | 1.6 | 0.00 | 0.00 | 0.00 | 40 | 1010.4 |
| 20260504200238 | 22 | 164 | 0.0 | 0.0 | 0.00 | 0.00 | 0.00 | 43 | 1010.7 |
| 20260504195734 | 22 | 164 | 0.0 | 0.0 | 0.00 | 0.00 | 0.00 | 45 | 1010.7 |
| 20260504195230 | 22 | 164 | 0.0 | 1.6 | 0.00 | 0.00 | 0.00 | 41 | 1010.7 |
| 20260504194727 | 22 | 164 | 0.0 | 1.6 | 0.00 | 0.00 | 0.00 | 41 | 1010.7 |
| 20260504194044 | 22 | 164 | 0.0 | 0.0 | 0.00 | 0.00 | 0.00 | 45 | 1010.7 |
| 20260504193541 | 22 | 164 | 0.0 | 0.0 | 0.00 | 0.00 | 0.00 | 45 | 1010.7 |
| 20260504193039 | 22 | 164 | 1.6 | 3.2 | 0.00 | 0.00 | 0.00 | 42 | 1010.5 |
| 20260504192537 | 22 | 164 | 0.0 | 0.0 | 0.00 | 0.00 | 0.00 | 46 | 1010.9 |
| 20260504192035 | 22 | 164 | 0.0 | 4.8 | 0.00 | 0.00 | 0.00 | 43 | 1010.9 |
| 20260504191533 | 22 | 164 | 0.0 | 1.6 | 0.00 | 0.00 | 0.00 | 43 | 1011.0 |
| 20260504191029 | 22 | 164 | 0.0 | 0.0 | 0.00 | 0.00 | 0.00 | 43 | 1011.0 |
| 20260504190525 | 22 | 164 | 0.0 | 0.0 | 0.00 | 0.00 | 0.00 | 43 | 1011.0 |
| 20260504190021 | 22 | 164 | 0.0 | 0.0 | 0.00 | 0.00 | 0.00 | 45 | 1011.0 |
| 20260504185518 | 21 | 164 | 0.0 | 0.0 | 0.00 | 0.00 | 0.00 | 44 | 1011.0 |
| 20260504185015 | 21 | 164 | 1.6 | 4.8 | 0.00 | 0.00 | 0.00 | 43 | 1010.8 |
| 20260504184510 | 21 | 164 | 0.0 | 0.0 | 0.00 | 0.00 | 0.00 | 46 | 1011.0 |
| 20260504184006 | 21 | 164 | 0.0 | 0.0 | 0.00 | 0.00 | 0.00 | 47 | 1011.1 |
| 20260504183503 | 21 | 164 | 0.0 | 0.0 | 0.00 | 0.00 | 0.00 | 48 | 1010.7 |
| 20260504183001 | 21 | 164 | 0.0 | 0.0 | 0.00 | 0.00 | 0.00 | 45 | 1011.0 |
| 20260504182458 | 21 | 164 | 0.0 | 0.0 | 0.00 | 0.00 | 0.00 | 48 | 1011.0 |
| 20260504181955 | 21 | 164 | 0.0 | 0.0 | 0.00 | 0.00 | 0.00 | 48 | 1011.1 |
| 20260504181452 | 21 | 164 | 0.0 | 0.0 | 0.00 | 0.00 | 0.00 | 51 | 1011.0 |
| 20260504180950 | 20 | 164 | 0.0 | 0.0 | 0.00 | 0.00 | 0.00 | 51 | 1011.1 |
| 20260504180449 | 20 | 164 | 0.0 | 0.0 | 0.00 | 0.00 | 0.00 | 51 | 1011.0 |
| 20260504175947 | 20 | 164 | 0.0 | 3.2 | 0.00 | 0.00 | 0.00 | 50 | 1011.0 |
| 20260504175444 | 20 | 164 | 0.0 | 0.0 | 0.00 | 0.00 | 0.00 | 51 | 1011.0 |
| 20260504174941 | 20 | 164 | 0.0 | 0.0 | 0.00 | 0.00 | 0.00 | 50 | 1011.1 |
| 20260504174439 | 20 | 164 | 0.0 | 0.0 | 0.00 | 0.00 | 0.00 | 51 | 1010.9 |
| 20260504173936 | 20 | 164 | 0.0 | 1.6 | 0.00 | 0.00 | 0.00 | 50 | 1011.3 |
| 20260504173432 | 20 | 164 | 0.0 | 0.0 | 0.00 | 0.00 | 0.00 | 53 | 1011.0 |
| 20260504172930 | 20 | 164 | 0.0 | 0.0 | 0.00 | 0.00 | 0.00 | 51 | 1010.9 |
| 20260504172426 | 20 | 164 | 0.0 | 0.0 | 0.00 | 0.00 | 0.00 | 52 | 1011.0 |
| 20260504171922 | 19 | 164 | 0.0 | 0.0 | 0.00 | 0.00 | 0.00 | 52 | 1011.1 |
| 20260504171420 | 19 | 164 | 0.0 | 0.0 | 0.00 | 0.00 | 0.00 | 53 | 1010.9 |
| 20260504170917 | 19 | 164 | 0.0 | 0.0 | 0.00 | 0.00 | 0.00 | 51 | 1010.9 |
| 20260504170413 | 19 | 164 | 0.0 | 0.0 | 0.00 | 0.00 | 0.00 | 47 | 1010.8 |
| 20260504160332 | 19 | 164 | 0.0 | 0.0 | 0.00 | 0.00 | 0.00 | 54 | 1010.7 |
| 20260504150756 | 17 | 164 | 0.0 | 0.0 | 0.00 | 0.00 | 0.00 | 63 | 1010.4 |
| 20260504150253 | 17 | 164 | 0.0 | 0.0 | 0.00 | 0.00 | 0.00 | 61 | 1010.1 |
| 20260504141223 | 12 | 165 | 0.0 | 0.0 | 0.00 | 0.00 | 0.00 | 71 | 1009.9 |
| 20260504140720 | 12 | 165 | 0.0 | 0.0 | 0.00 | 0.00 | 0.00 | 70 | 1009.9 |
| 20260504140215 | 12 | 164 | 0.0 | 0.0 | 0.00 | 0.00 | 0.00 | 69 | 1010.0 |
| 20260504130643 | 11 | 164 | 0.0 | 0.0 | 0.00 | 0.00 | 0.00 | 70 | 1009.4 |
| 20260504130140 | 11 | 164 | 0.0 | 0.0 | 0.00 | 0.00 | 0.00 | 70 | 1009.4 |
| 20260504120104 | 11 | 164 | 0.0 | 0.0 | 0.00 | 0.00 | 0.00 | 70 | 1009.4 |
| 20260504110531 | 11 | 164 | 0.0 | 0.0 | 0.00 | 0.00 | 0.00 | 72 | 1009.4 |
| 20260504100448 | 12 | 165 | 0.0 | 0.0 | 0.00 | 0.00 | 0.00 | 67 | 1009.3 |